SCP
2 1 1 1 0 1 1 1 0 1 1 1 1 1 1 0 0 0 1 0 0 0 0 0 0 0 0 0 1 1 1 1 1 1 1 1 1 1 1 1 1 1 2
1 1 1 1 0 1 1 1 0 0 1 1 1 1 1 1 0 0 0 0 0 0 0 1 1 1 1 1 1 1 1 1 1 1 1 1 1 1 1 1 1 1 1
1 1 1 1 1 1 1 1 0 0 0 1 1 2 1 1 1 0 0 0 1 0 1 1 1 1 1 1 1 1 1 1 1 1 1 1 1 1 1 1 0 1 1
1 1 1 1 1 1 1 1 1 0 0 0 1 1 2 1 1 0 0 0 1 1 1 1 1 1 1 1 1 1 1 1 1 0 0 1 1 1 1 1 0 1 1
0 0 0 1 1 1 1 1 1 0 0 0 0 1 1 1 1 1 0 0 0 1 0 0 0 0 0 0 0 0 1 1 1 0 0 0 1 1 1 1 1 1 1
0 0 0 0 0 0 1 1 1 1 0 0 0 0 1 1 1 1 0 0 0 0 0 0 0 0 0 0 0 0 0 0 0 0 0 0 0 1 1 1 1 1 1
0 0 0 0 0 0 0 1 1 1 0 0 0 0 0 0 1 1 1 0 0 0 0 0 1 1 0 0 0 0 0 0 0 0 0 0 0 0 1 1 1 1 1
0 0 0 0 0 0 0 0 1 1 0 0 0 0 0 0 0 0 1 1 1 1 0 0 1 1 1 0 0 0 0 0 1 1 0 0 0 0 0 0 1 1 1
0 0 0 0 0 0 0 0 1 1 0 0 0 0 0 0 0 0 0 1 1 1 1 1 1 1 1 1 0 0 0 0 1 1 1 0 0 0 0 0 0 0 0
0 0 0 0 0 0 0 0 0 1 0 0 0 0 0 0 0 0 0 0 1 1 1 1 1 1 1 1 0 0 0 0 1 1 1 0 0 0 0 0 0 0 0
0 0 0 0 0 0 0 0 0 0 0 0 0 0 0 0 0 0 0 0 0 1 1 1 1 1 1 1 0 0 0 0 0 1 1 0 0 0 0 1 1 1 0
0 0 0 0 0 0 0 0 0 0 0 0 0 0 0 0 0 0 0 0 0 0 1 1 1 1 1 1 0 0 0 0 0 0 1 0 0 0 0 1 1 1 1
0 0 0 0 0 0 0 0 1 1 0 0 0 0 0 0 0 0 0 0 0 0 0 0 0 0 0 1 0 0 0 0 0 0 0 0 0 0 0 0 0 0 0
0 0 0 0 0 0 0 0 1 1 0 0 0 0 0 0 0 0 0 0 0 0 0 0 0 0 0 0 0 0 0 0 0 0 0 0 0 0 0 0 0 0 0
0 0 0 0 0 0 0 0 0 0 0 0 0 0 0 0 0 0 0 0 0 0 0 0 0 0 0 0 0 0 0 0 0 0 0 0 0 0 0 0 0 0 0
0 0 0 0 0 0 0 0 0 0 0 0 0 0 0 0 0 0 0 0 0 0 0 0 0 0 0 0 0 0 0 0 0 0 0 0 0 0 0 0 0 0 0
0 0 0 0 0 0 0 0 0 0 0 0 0 0 0 0 0 0 0 0 0 0 0 0 0 0 0 0 0 0 0 0 0 0 0 0 0 0 0 0 0 0 0
0 0 0 0 0 0 0 0 0 0 0 0 0 0 0 0 0 0 0 0 0 0 0 0 0 0 0 0 0 0 0 0 0 0 0 0 0 0 0 0 0 0 0
0 0 0 0 0 0 0 0 0 0 0 0 0 0 0 0 0 0 0 0 0 0 0 0 0 0 0 0 0 0 0 0 0 0 0 0 0 0 0 0 0 0 0
0 0 0 0 0 0 0 0 0 0 0 0 0 0 0 0 0 0 0 0 0 0 0 0 0 0 0 0 0 0 0 0 0 0 0 0 0 0 0 0 0 0 0
0 0 0 0 0 0 0 0 0 0 0 0 0 0 0 0 0 0 0 0 0 0 0 0 0 0 0 0 0 0 0 0 0 0 0 0 0 0 0 0 0 0 0
0 0 0 0 0 0 0 0 0 0 0 0 0 0 0 0 0 0 0 0 0 0 0 0 0 0 0 0 0 0 0 0 0 0 0 0 0 0 0 0 0 0 0
0 0 0 0 0 0 0 0 0 0 0 0 0 0 0 0 0 0 0 0 0 0 0 0 0 0 0 0 0 0 0 0 0 0 0 0 0 0 0 0 0 0 0
0 0 0 0 0 0 0 0 0 0 0 0 0 0 0 0 0 0 0 0 0 0 0 0 0 0 0 0 0 0 0 0 0 0 0 0 0 0 0 0 0 0 0
0 0 0 0 0 0 0 0 0 0 0 0 0 0 0 0 0 0 0 0 0 0 0 0 0 0 0 0 0 0 0 0 0 0 0 0 0 0 0 0 0 0 0
0 0 0 0 0 0 0 0 0 0 0 0 0 0 0 0 0 0 0 0 0 0 0 0 0 0 0 0 0 0 0 0 0 0 0 0 0 0 0 0 0 0 0
Wind_Speed
2 2 1 1 1 1 2 2 2 2 2 2 2 2 2 2 2 2 2 5 6 5 5 5 5 5 6 6 6 6 6 5 6 6 6 6 6 7 7 7 8 9 9
3 2 2 1 1 1 1 2 2 2 1 1 2 2 2 2 2 2 2 3 6 6 5 5 6 6 6 5 5 6 6 6 6 6 6 6 7 7 7 8 8 9 9
3 3 2 2 1 1 2 2 2 2 2 2 2 2 2 2 2 2 2 2 2 5 6 6 6 6 6 6 6 6 6 7 7 7 7 7 7 7 8 8 9 9 9
3 3 2 2 1 1 1 2 2 2 2 2 1 1 1 1 2 2 2 2 2 2 4 7 7 7 6 6 6 6 6 7 7 7 8 8 8 8 8 9 9 9 9
3 3 2 2 2 2 1 1 1 1 1 1 1 1 1 1 1 2 2 2 2 2 2 4 6 7 7 7 7 7 7 7 7 7 7 8 8 9 9 9 10 10 10
3 3 2 2 2 2 2 1 2 1 1 1 2 2 2 1 1 1 1 1 2 2 2 2 2 4 6 7 7 7 7 8 8 7 8 8 9 9 9 10 10 11 11
3 3 2 2 2 2 2 1 1 2 2 1 2 2 2 2 1 1 0 1 1 2 2 2 1 1 2 6 7 7 7 8 8 8 8 8 9 10 10 10 11 11 11
2 2 2 2 2 2 2 2 2 1 1 1 2 1 1 2 2 1 0 0 0 1 1 1 1 1 1 1 4 7 8 8 9 9 9 9 9 10 10 11 12 12 12
2 2 2 2 2 2 2 2 2 3 2 1 1 2 2 2 2 2 1 0 0 0 1 1 1 1 1 1 2 5 8 9 9 9 10 10 10 10 11 11 12 12 12
2 2 2 2 2 2 2 1 1 2 3 1 0 1 1 2 2 2 2 1 1 1 2 2 2 2 1 1 3 6 8 9 10 10 11 11 11 11 11 11 12 12 13
1 1 1 2 2 2 1 1 1 2 2 2 2 1 1 0 1 2 3 3 2 2 2 2 2 2 2 1 2 4 7 9 10 11 11 11 12 12 12 12 12 12 13
1 1 1 1 1 1 1 1 1 2 1 2 2 2 2 2 2 2 3 3 3 3 2 2 2 2 2 1 3 6 7 9 10 11 11 12 12 12 12 13 13 13 13
0 0 1 1 1 1 1 1 1 1 2 2 2 1 1 2 2 2 2 2 3 3 2 2 2 2 2 2 3 6 6 8 10 11 11 12 12 12 12 13 13 13 13
1 1 1 1 1 1 1 1 1 1 1 2 1 1 1 1 2 2 2 2 2 3 2 3 1 2 2 2 4 6 4 8 9 10 11 11 12 12 12 12 13 13 13
1 1 1 1 1 1 1 1 1 1 1 1 2 2 2 2 2 2 2 2 2 3 4 3 2 2 2 2 5 2 3 8 10 10 10 11 11 11 12 12 12 13 13
1 1 1 1 2 2 2 2 1 2 2 2 2 2 2 2 2 2 2 2 2 3 4 3 2 2 3 3 6 3 4 9 9 10 10 10 11 12 12 12 12 12 13
2 2 2 2 2 2 2 2 2 2 2 2 2 3 3 2 2 2 2 2 2 2 5 4 2 2 3 4 4 3 3 3 4 9 10 11 11 11 11 12 12 13 13
2 3 2 2 2 2 3 3 3 3 3 3 3 3 3 2 2 2 2 3 3 3 3 6 4 2 3 3 3 4 4 3 3 8 10 11 11 11 12 12 12 12 12
2 2 2 3 3 3 3 3 3 3 4 4 4 4 4 4 4 3 3 3 3 3 3 4 5 3 3 3 3 4 4 3 4 6 9 9 11 12 12 12 12 11 11
3 3 3 3 3 3 4 4 3 3 3 4 4 5 5 5 5 5 4 4 3 3 3 3 4 3 3 3 2 3 4 3 4 4 6 7 10 11 11 11 11 11 11
3 3 3 3 3 3 4 4 4 4 4 4 4 4 5 6 7 6 4 4 4 3 3 3 4 4 3 2 3 2 4 4 4 3 3 4 5 5 6 8 10 11 11
2 2 3 3 3 3 5 6 4 3 4 4 4 4 5 5 7 9 9 8 6 5 4 4 4 5 5 4 3 3 3 3 4 2 2 5 3 5 4 4 9 11 10
2 2 3 3 4 5 7 7 7 3 3 4 4 4 4 4 6 5 7 9 8 10 8 5 5 6 5 4 4 4 3 4 5 3 3 5 3 5 4 6 10 9 8
2 3 3 3 4 5 7 7 7 4 3 4 5 5 5 5 5 5 4 4 5 5 7 5 5 6 5 4 4 4 4 4 4 3 2 4 3 4 5 4 8 8 8
3 3 3 3 4 5 6 7 6 2 3 4 5 5 5 5 7 7 4 4 5 5 7 8 9 8 9 8 5 2 2 3 4 3 2 2 3 4 4 3 5 8 8
3 3 3 3 4 4 6 7 5 2 3 4 3 4 7 7 8 8 5 4 5 5 4 4 5 6 5 6 7 4 4 4 3 3 2 2 2 2 4 3 2 3 4
Wind_Direction
128 114 92 73 67 67 75 67 54 52 56 51 53 63 51 40 36 26 24 41 47 49 50 50 47 44 37 32 29 26 19 15 8 4 359 351 344 336 332 330 322 319 315
137 129 111 88 64 65 76 84 80 65 60 69 56 50 48 38 48 47 44 41 45 47 48 47 44 40 33 27 24 20 20 12 1 354 351 345 341 336 330 326 325 320 317
137 131 122 108 81 68 79 77 65 66 59 65 59 49 54 45 56 63 56 52 39 40 46 46 41 39 35 27 23 21 21 16 9 4 357 353 347 339 334 329 326 324 319
132 128 125 122 107 88 87 93 83 77 59 54 46 29 34 54 63 69 67 56 50 39 35 42 40 38 32 21 16 14 17 13 7 359 354 350 347 342 337 331 327 325 322
129 123 122 117 108 91 83 102 84 103 96 66 53 42 29 42 46 68 70 62 53 50 38 34 35 33 25 15 9 6 5 3 359 354 349 348 349 345 341 335 329 323 320
128 118 111 103 102 96 74 86 102 76 108 109 80 49 26 16 38 63 79 65 55 53 45 37 26 14 16 8 3 360 356 353 349 347 346 345 345 344 340 337 335 332 323
131 123 117 111 110 109 106 106 115 86 61 75 77 39 14 25 33 55 74 74 49 35 39 35 32 19 353 360 359 355 349 345 342 340 339 339 338 336 333 332 332 333 331
131 125 126 128 122 118 109 105 115 109 44 45 97 92 10 348 358 354 24 94 35 18 17 6 358 8 349 335 344 351 347 339 334 332 330 330 331 331 330 329 329 330 330
113 123 135 136 126 128 141 145 150 151 148 35 60 130 146 228 309 317 301 279 287 328 307 301 308 313 322 324 314 332 342 337 330 326 325 325 325 324 324 325 325 326 327
97 110 123 131 128 127 139 161 162 160 154 173 147 67 149 162 168 300 306 294 286 277 276 297 289 278 285 297 315 331 338 334 327 323 321 321 321 319 319 321 321 323 324
78 101 110 117 119 119 124 128 133 150 164 174 174 167 140 119 169 185 268 291 293 257 247 252 250 261 272 286 286 311 328 326 321 318 317 316 317 318 317 317 317 319 320
61 82 99 103 109 115 129 154 156 141 152 163 169 175 172 178 192 189 233 266 280 276 263 239 231 243 255 267 292 316 319 319 317 315 315 315 316 317 316 315 314 314 315
214 169 131 134 137 153 162 165 157 160 159 159 180 200 199 208 196 191 214 254 275 290 284 258 229 233 262 259 274 309 307 312 313 312 312 314 316 315 314 313 313 312 312
214 189 167 170 172 176 171 165 162 182 163 171 184 200 215 240 217 201 196 205 274 288 278 267 266 235 255 261 278 303 295 307 309 310 310 313 315 314 312 312 310 310 310
196 176 170 174 180 181 180 171 176 200 176 189 200 206 220 237 230 219 206 196 202 262 278 261 262 263 269 265 287 278 275 296 307 308 309 312 313 312 310 309 308 307 306
196 178 186 185 193 196 190 179 191 203 189 207 208 214 230 234 232 222 213 210 208 220 260 262 253 275 282 292 294 284 272 300 303 304 305 310 311 310 307 307 306 306 306
196 196 198 190 201 208 201 192 206 203 202 218 224 220 234 234 227 230 220 217 222 217 256 278 264 273 268 278 292 287 279 274 283 299 303 306 306 307 308 306 305 304 304
207 203 197 200 213 215 210 204 212 212 208 218 228 224 235 233 230 233 223 224 229 224 238 274 284 276 267 268 276 283 292 292 278 295 301 303 304 307 307 304 304 302 302
209 208 199 208 218 219 218 217 213 216 216 222 225 225 231 222 233 234 231 231 234 244 237 260 278 277 278 275 283 287 285 283 289 294 300 300 302 304 305 304 302 301 301
209 216 219 220 223 225 223 219 214 220 223 229 232 231 231 224 227 230 233 232 234 243 249 259 273 281 280 273 265 284 296 286 289 294 294 296 297 301 302 302 300 299 299
223 223 224 231 231 228 224 213 213 219 225 236 241 238 237 238 237 237 239 233 226 235 247 260 272 281 280 279 273 274 284 297 287 272 291 288 290 287 291 294 295 293 292
234 229 231 233 239 244 244 244 239 227 230 234 247 250 248 247 251 256 256 252 239 235 240 249 265 268 273 271 271 272 282 302 295 268 294 290 278 281 283 274 285 290 288
241 243 242 238 247 251 254 256 252 242 236 239 242 247 253 249 250 242 254 261 259 256 250 244 253 260 265 260 261 266 262 268 271 274 293 286 283 283 286 290 293 290 291
231 242 248 247 254 260 262 264 264 251 238 242 238 234 238 247 242 238 237 248 250 255 257 248 242 252 257 252 242 252 258 275 275 263 237 273 289 288 298 293 291 292 301
247 247 249 245 252 265 266 269 270 243 245 251 246 236 235 240 253 255 245 249 264 268 274 270 268 267 270 269 263 263 263 273 286 277 221 250 284 299 293 285 289 298 305
248 250 254 247 247 258 264 270 270 238 250 259 255 246 248 249 256 257 238 234 257 266 265 281 279 279 270 264 262 236 230 247 267 273 218 227 272 319 306 285 288 305 306